Location: Golmbach
(51.8990°N, 9.5467°E)
Time: 22:17:13
(UTC+00:00)

Daily predictions for brighter satellites

Satellite Brightness Start Highest point End
(mag) Time Altitude Azimuth Time Altitude Azimuth Time Altitude Azimuth
NOSS 3-4 (A) 4.4 15:40:54 10° NW 15:47:41 69° SW 15:55:30 10° SSE
NOSS 3-4 (C) 4.4 15:41:04 10° NW 15:47:47 68° SW 15:55:30 10° SSE
NOSS 3-3 (C) 4.2 15:44:45 10° SW 15:50:26 71° NW 15:57:12 10° NE
NOSS 3-3 (A) 4.2 15:45:08 10° WSW 15:50:47 70° NW 15:57:33 10° NE
Cosmos 2151 3.0 15:46:53 10° N 15:51:07 58° ENE 15:55:20 10° SSE
Cosmos 2082 4.2 15:46:19 10° S 15:51:31 41° ESE 15:56:46 10° NE
Lacrosse 4 Rocket 1.8 15:50:11 10° NNW 15:54:23 43° NE 15:58:28 10° ESE
Cosmos 2058 Rocket 3.4 15:53:11 10° SSE 15:57:25 46° E 16:01:38 10° NNE
Cosmos 2279 Rocket 4.0 15:52:35 10° N 15:58:51 71° ENE 16:05:03 10° SSE
SL-08 RB Rocket 3.7 15:55:19 10° SSE 15:59:48 86° ENE 16:04:21 10° NNW
Cosmos 1269 Rocket 4.2 15:56:06 10° NNW 16:01:25 80° WSW 16:06:42 10° SSE
Cosmos 1606 Rocket 3.9 15:59:05 10° SSW 16:03:31 71° WNW 16:07:57 10° N
Cosmos 1726 Rocket 3.6 15:59:55 10° S 16:04:22 88° WNW 16:08:50 10° N
CZ-2D R/B 3.1 16:01:34 10° SSE 16:05:13 71° ENE 16:08:54 10° N
Cosmos 1812 4.0 16:07:48 10° SE 16:10:29 19° E 16:13:11 10° NE
Meteor 1-27 4.4 16:05:19 10° SSW 16:10:57 76° WNW 16:16:34 10° N
YAOGAN 11 4.5 16:09:24 10° NNE 16:13:50 47° E 16:18:13 10° S
AQUARIUS 4.4 16:10:02 10° SE 16:14:16 44° ENE 16:18:31 10° N
USA 276 3.6 16:13:42 10° SSW 16:15:26 18° SSE 16:17:13 10° ESE
Cosmos 1437 Rocket 3.1 16:12:30 10° NNW 16:16:12 64° W 16:19:55 10° S
CZ-2C R/B 2.5 16:13:13 10° SSE 16:16:46 74° ENE 16:20:23 10° N
Cosmos 2263 Rocket 2.4 16:12:14 10° S 16:17:38 55° ESE 16:23:06 10° NE
Cosmos 1844 Rocket 4.3 16:15:48 10° SE 16:18:32 14° E 16:20:21 12° ENE
Nadezhda 4 Rocket 4.3 16:15:57 10° SSE 16:21:38 42° E 16:27:19 10° NNE
CORIOLIS 4.1 16:16:23 10° SSE 16:21:41 67° ENE 16:27:02 10° N
ERS-2 2.8 16:20:24 10° S 16:23:13 45° WSW 16:26:05 10° NNW
USA 307 3.6 16:20:08 10° WNW 16:23:52 48° SSW 16:27:33 10° SE
Cosmos 2082 Rocket 4.2 16:23:17 10° N 16:25:05 11° N 16:26:51 10° NNE
Cosmos 2227 Rocket 2.8 16:20:14 10° SW 16:25:48 57° NW 16:31:24 10° NNE
Meteor 1-20 Rocket 4.3 16:20:55 10° N 16:26:21 52° ENE 16:31:51 10° SSE
Cosmos 1140 Rocket 3.4 16:21:50 10° NNW 16:27:01 65° ENE 16:32:07 10° SE
YAOGAN 1 4.0 16:29:59 16° ENE 16:30:23 16° ENE 16:33:01 10° NNE
SAR-Lupe-2 4.1 16:26:57 10° S 16:30:29 62° WSW 16:34:04 10° NNW
ADEOS 4.4 16:27:32 10° ESE 16:31:56 28° ENE 16:36:20 10° N
Cosmos 1666 2.4 16:29:53 10° N 16:33:26 88° W 16:36:58 10° S
Cosmos 1603 3.7 16:31:21 10° NNW 16:37:04 65° NE 16:42:41 10° SE
NOSS 8 (A) 4.2 16:33:59 10° SW 16:37:35 77° SE 16:39:23 22° NE
DMSP B5D2-2 4.0 16:32:40 10° NNE 16:37:54 72° ESE 16:43:06 10° S
Cosmos 1076 Rocket 4.3 16:36:21 10° NNW 16:40:39 57° W 16:44:54 10° S
Meteor 1-31 Rocket 2.6 16:40:00 10° SSE 16:43:41 87° ENE 16:47:26 10° NNW
CZ-4B R/B 4.2 16:45:00 21° ENE 16:45:01 21° ENE 16:48:08 10° NNE
SL-16 R/B 4.4 16:44:48 10° NW 16:49:38 29° WSW 16:54:26 10° SSW
ATLAS CENTAUR R/B 3.2 16:46:40 10° WNW 16:50:38 58° SW 16:58:12 10° SE
Cosmos 1602 4.0 16:48:35 10° NNW 16:52:19 67° W 16:56:00 10° S
RESURS DK-1 3.1 16:51:30 10° NNW 16:55:12 31° NE 16:56:13 27° ENE
USA 305 4.0 16:51:58 10° WNW 16:55:32 37° SW 16:59:06 10° SSE
Cosmos 1607 4.3 16:51:44 10° SW 16:58:04 67° NW 17:03:17 17° NE
CZ-4B R/B 3.3 16:54:35 10° SSE 16:59:37 73° ENE 17:04:32 10° NNW
Cosmos 1943 3.6 16:55:22 10° NW 17:00:59 67° WSW 17:06:34 10° SSE
Helios 1A 3.2 16:58:42 20° NE 17:01:19 47° E 17:05:19 10° S
Cosmos 1782 3.3 16:58:39 10° SSE 17:02:14 36° E 17:03:03 32° ENE
Cosmos 1812 Rocket 3.5 16:58:20 10° S 17:02:36 59° E 17:06:22 13° NNE
Cosmos 1271 Rocket 4.3 16:59:53 10° N 17:01:24 19° NNE 17:01:24 19° NNE
ATLAS 2AS CENTAUR R/B 2.7 16:56:33 10° NW 17:03:32 63° NE 17:09:08 15° ESE
SMAP 3.9 17:01:53 10° S 17:06:25 52° W 17:11:00 10° NNW
NOAA 6 3.9 17:02:22 10° SSE 17:07:27 68° ENE 17:12:33 10° N
Cosmos 407 Rocket 3.6 17:07:10 10° NNW 17:12:22 78° WSW 17:17:28 10° SSE
Radarsat Rocket 3.9 17:08:11 10° SSE 17:13:59 77° ENE 17:20:12 10° NNW
Cosmos 2297 Rocket 4.0 17:10:02 10° W 17:14:28 23° NW 17:18:55 10° NNE
SOZ 4.3 17:13:16 10° WSW 17:15:33 76° SSE 17:16:20 47° E
ISS -0.5 17:17:57 10° WSW 17:19:00 11° SW 17:20:00 10° SSW
Cosmos 2251 Rocket 3.9 17:14:47 10° NNW 17:20:06 66° WSW 17:25:24 10° S
Cosmos 2219 4.3 17:15:22 10° WSW 17:20:37 39° NW 17:25:23 12° NNE
ADEOS Rocket 4.2 17:22:48 21° NNE 17:22:48 21° NNE 17:25:50 10° N
Cosmos 220 Rocket 3.8 17:19:39 10° NNW 17:24:01 77° ENE 17:27:53 12° SSE
Cosmos 1954 Rocket 3.9 17:21:43 10° NNW 17:27:00 65° ENE 17:31:27 14° SE
Cosmos 2056 Rocket 4.0 17:23:32 10° S 17:28:28 38° ESE 17:28:45 38° E
SME Rocket 4.5 17:22:38 10° SE 17:28:36 62° ENE 17:37:53 10° NNW
COSMOS 2455 4.4 17:24:50 10° SSE 17:27:03 17° SE 17:27:03 17° SE
Timation 2 Rocket 4.2 17:23:46 10° S 17:29:20 42° ESE 17:30:41 37° ENE
Cosmos 1844 4.1 17:24:14 10° S 17:29:34 40° ESE 17:30:24 38° E
COSMO-SKYMED 1 2.5 17:29:30 42° NE 17:30:47 63° E 17:35:05 10° S
CZ-4 R/B 4.4 17:27:04 10° SSE 17:31:09 84° WSW 17:35:16 10° NNW
Lacrosse 5 2.5 17:26:35 10° SSW 17:31:12 37° SE 17:31:42 36° ESE
Cosmos-2242 3.6 17:27:57 10° SSW 17:32:14 58° WNW 17:36:21 11° N
Lacrosse 4 Rocket 3.3 17:28:50 10° NW 17:32:41 31° WSW 17:36:27 10° S
Cosmos 1833 Rocket 3.5 17:29:05 10° NNW 17:33:48 30° NE 17:33:48 30° NE
Meteor 1-14 Rocket 4.4 17:30:51 10° N 17:36:07 42° ENE 17:36:08 42° ENE
Cosmos 1553 Rocket 3.9 17:32:05 10° N 17:38:23 60° ENE 17:44:31 10° SSE
USA 234 3.3 17:37:35 37° E 17:40:11 61° SE 17:46:39 10° SW
APEX 3.8 17:37:57 10° SW 17:39:57 38° WSW 17:39:57 38° WSW
Meteor 2-2 Rocket 4.3 17:36:12 10° SSW 17:41:59 82° WNW 17:47:56 10° NNE
PAYLOAD B 4.4 17:42:07 46° ENE 17:42:21 46° ENE 17:47:40 10° N
Cosmos 2221 3.5 17:38:34 10° S 17:41:02 32° SSE 17:41:02 32° SSE
Cosmos 2344 3.4 17:36:11 10° SSW 17:43:37 73° SE 17:47:04 34° NE
Cosmos 1190 Rocket 4.2 17:39:08 10° NNW 17:44:27 73° WSW 17:49:42 10° SSE
Cosmos 1812 3.9 17:41:55 10° SW 17:45:21 38° WNW 17:47:41 18° NNW
Cosmos 1818 3.4 17:42:00 10° SW 17:47:26 78° SE 17:48:46 52° NE
Cosmos 2026 Rocket 3.9 17:42:45 10° S 17:49:02 89° ESE 17:55:27 10° N
Cosmos 1371 Rocket 4.0 17:47:30 10° S 17:52:32 58° ESE 17:52:32 58° ESE
NOAA 15 4.4 17:49:57 10° SSE 17:55:15 79° ENE 18:00:34 10° NNW
Cosmos 44 Rocket 4.3 17:53:34 10° NW 17:57:40 36° NNE 17:57:40 36° NNE
CZ-4B R/B 4.0 18:01:43 36° NNE 18:01:43 36° NNE 18:05:21 10° N
Cosmos 1844 Rocket 2.5 17:55:54 10° SSW 18:01:27 74° ESE 18:02:02 67° ENE
Cosmos 2263 Rocket 3.5 17:56:45 10° WSW 18:01:50 35° NW 18:05:03 20° N
Meteor 1-26 Rocket 4.1 17:56:44 10° S 18:02:18 79° E 18:04:18 42° NNE
Cosmos 1766 Rocket 3.7 17:58:46 10° NNW 18:03:08 70° W 18:07:26 10° S
YAOGAN 1 3.2 18:07:02 47° NNW 18:07:02 47° NNW 18:10:11 10° NNW
Cosmos 1092 Rocket 4.2 18:00:30 10° SSW 18:06:36 69° WNW 18:12:46 10° N
Cosmos 1933 4.0 18:03:56 10° SSW 18:07:51 53° WNW 18:07:55 53° WNW
Cosmos 1420 Rocket 3.9 18:03:19 10° SSW 18:08:27 79° SE 18:08:27 79° SE
Cosmos 2227 Rocket 4.3 18:07:16 10° WNW 18:11:07 18° NNW 18:14:01 13° N
ADEOS 4.2 18:06:02 10° S 18:11:09 56° WSW 18:16:19 10° NNW
Cosmos 2082 Rocket 3.9 18:06:54 10° NNW 18:09:21 19° N 18:09:21 19° N
Cosmos 1624 Rocket 4.1 18:11:10 10° SSW 18:15:39 66° S 18:15:39 66° S
SKYMED 2 4.4 18:18:07 43° NW 18:18:51 48° WNW 18:23:01 10° SW
CZ-4B R/B 4.1 18:20:41 38° NW 18:20:41 38° NW 18:23:29 10° NNW
Cosmos 1417 Rocket 4.3 18:16:30 10° N 18:22:51 82° E 18:24:06 60° SSE
SL-08 R/B 3.8 18:25:44 57° W 18:25:44 57° W 18:29:49 10° SSW
RESURS DK-1 4.0 18:29:15 10° NW 18:31:56 32° WNW 18:31:56 32° WNW
ATLAS 2AS CENTAUR R/B 3.6 18:47:51 10° NW 18:54:14 42° WSW 18:56:38 31° SSW
ADEOS Rocket 4.5 19:09:44 26° NNW 19:09:44 26° NNW 19:12:10 10° NNW
Lacrosse 5 3.9 19:08:53 10° WSW 19:10:56 24° WSW 19:10:56 24° WSW
Cosmos 1833 Rocket 4.3 19:12:51 10° NW 19:15:30 28° NW 19:15:30 28° NW
USA 234 3.8 19:24:56 52° W 19:24:56 52° W 19:29:51 10° W
Cosmos 2344 4.5 19:51:39 10° W 19:57:06 40° NW 19:57:06 40° NW
